BEL815 EDDH-EBBR

Flight info

Callsign BEL815
Flight time 0h 52m
Altitude 36000
Route WSN5G WSN DCT EEL N872 LILSI/N0453F350 Z310 WOODY WODY5B
Aircraft A20N/M-V/N

Departure

Time 2026-04-24 19:37
Airport Hamburg Helmut Schmidt Airport (EDDH)

Arrival

Time 2026-04-24 20:29
Airport Brussels Airport (EBBR)
Time Latitude Longitude Altitude Speed Heading
2026-04-24 19:07 53.63032 10.00349 50 ft 0 kts 122°
2026-04-24 19:21 53.63036 10.00339 49 ft 2 kts 121°
2026-04-24 19:21 53.63045 10.00316 47 ft 2 kts 122°
2026-04-24 19:21 53.63054 10.00292 45 ft 2 kts 122°
2026-04-24 19:22 53.63060 10.00276 50 ft 2 kts 122°
2026-04-24 19:22 53.63071 10.00245 46 ft 2 kts 122°
2026-04-24 19:22 53.63080 10.00222 47 ft 2 kts 124°
2026-04-24 19:22 53.63090 10.00199 50 ft 2 kts 143°
2026-04-24 19:23 53.63105 10.00194 45 ft 2 kts 178°
2026-04-24 19:23 53.63122 10.00193 45 ft 2 kts 178°
2026-04-24 19:23 53.63135 10.00192 48 ft 1 kts 176°
2026-04-24 19:23 53.63136 10.00191 48 ft 0 kts 175°
2026-04-24 19:25 53.63117 10.00194 45 ft 7 kts 175°
2026-04-24 19:25 53.63051 10.00164 50 ft 12 kts 211°
2026-04-24 19:25 53.62970 10.00080 50 ft 14 kts 212°
2026-04-24 19:26 53.62913 9.99968 50 ft 11 kts 243°
2026-04-24 19:26 53.62901 9.99928 49 ft 0 kts 243°
2026-04-24 19:35 53.62891 9.99896 74 ft 7 kts 243°
2026-04-24 19:35 53.62864 9.99782 47 ft 12 kts 274°
2026-04-24 19:36 53.62895 9.99722 49 ft 0 kts 330°
2026-04-24 19:36 53.62966 9.99655 49 ft 41 kts 332°
2026-04-24 19:36 53.63425 9.99259 51 ft 104 kts 334°
2026-04-24 19:37 53.64216 9.98589 158 ft 140 kts 328°
2026-04-24 19:37 53.65124 9.97827 570 ft 152 kts 329°
2026-04-24 19:37 53.66122 9.97002 1031 ft 168 kts 330°
2026-04-24 19:37 53.67179 9.96113 1701 ft 174 kts 330°
2026-04-24 19:38 53.68281 9.95157 2340 ft 188 kts 331°
2026-04-24 19:38 53.69446 9.94120 3246 ft 190 kts 333°
2026-04-24 19:38 53.70581 9.92941 4191 ft 197 kts 319°
2026-04-24 19:38 53.71339 9.90958 4785 ft 209 kts 290°
2026-04-24 19:39 53.71364 9.88487 5032 ft 220 kts 259°
2026-04-24 19:39 53.70845 9.85924 5137 ft 250 kts 256°
2026-04-24 19:39 53.70239 9.83003 5705 ft 269 kts 255°
2026-04-24 19:39 53.69625 9.80038 6871 ft 267 kts 255°
2026-04-24 19:40 53.69017 9.77051 7871 ft 271 kts 256°
2026-04-24 19:40 53.68410 9.74024 8890 ft 274 kts 257°
2026-04-24 19:40 53.67802 9.70938 9648 ft 280 kts 257°
2026-04-24 19:40 53.67187 9.67812 9981 ft 282 kts 257°
2026-04-24 19:41 53.66571 9.64677 10119 ft 282 kts 257°
2026-04-24 19:41 53.65952 9.61538 10157 ft 282 kts 257°
2026-04-24 19:41 53.65248 9.58440 10159 ft 285 kts 249°
2026-04-24 19:41 53.64237 9.55537 10160 ft 290 kts 240°
2026-04-24 19:42 53.63045 9.52797 10159 ft 291 kts 239°
2026-04-24 19:42 53.61853 9.50035 10159 ft 291 kts 239°
2026-04-24 19:42 53.60670 9.47279 10158 ft 290 kts 239°
2026-04-24 19:42 53.59490 9.44526 10158 ft 290 kts 239°
2026-04-24 19:43 53.58307 9.41770 10164 ft 291 kts 239°
2026-04-24 19:43 53.57122 9.39010 10163 ft 290 kts 239°
2026-04-24 19:43 53.55951 9.36289 10192 ft 294 kts 239°
2026-04-24 19:43 53.54711 9.33398 10306 ft 312 kts 239°
2026-04-24 19:44 53.53410 9.30361 10674 ft 334 kts 238°
2026-04-24 19:44 53.52038 9.27183 11506 ft 338 kts 238°
2026-04-24 19:44 53.50645 9.23972 12436 ft 341 kts 238°
2026-04-24 19:44 53.49241 9.20740 13362 ft 344 kts 238°
2026-04-24 19:45 53.47825 9.17479 14231 ft 348 kts 237°
2026-04-24 19:45 53.46392 9.14180 15007 ft 351 kts 237°
2026-04-24 19:45 53.44945 9.10852 15790 ft 355 kts 237°
2026-04-24 19:45 53.43480 9.07488 16575 ft 359 kts 237°
2026-04-24 19:46 53.42482 9.05200 17088 ft 361 kts 237°
2026-04-24 19:46 53.40992 9.01789 17858 ft 365 kts 237°
2026-04-24 19:46 53.39481 8.98334 18588 ft 369 kts 237°
2026-04-24 19:46 53.37981 8.94907 19268 ft 371 kts 237°
2026-04-24 19:47 53.36466 8.91405 19965 ft 372 kts 239°
2026-04-24 19:47 53.35243 8.87604 20634 ft 371 kts 250°
2026-04-24 19:47 53.34461 8.83486 21277 ft 372 kts 259°
2026-04-24 19:47 53.34090 8.79192 21941 ft 374 kts 264°
2026-04-24 19:48 53.33784 8.74855 22594 ft 377 kts 264°
2026-04-24 19:48 53.33465 8.70476 23226 ft 380 kts 264°
2026-04-24 19:48 53.32804 8.61627 24398 ft 385 kts 263°
2026-04-24 19:49 53.32125 8.52702 25509 ft 389 kts 263°
2026-04-24 19:49 53.30498 8.44073 26534 ft 396 kts 243°
2026-04-24 19:50 53.26241 8.32120 28050 ft 401 kts 242°
2026-04-24 19:50 53.24846 8.28070 28524 ft 403 kts 243°
2026-04-24 19:51 53.22098 8.19900 29450 ft 405 kts 243°
2026-04-24 19:51 53.20722 8.15790 29876 ft 407 kts 243°
2026-04-24 19:52 53.17951 8.07531 30691 ft 409 kts 243°
2026-04-24 19:52 53.16556 8.03382 31043 ft 411 kts 243°
2026-04-24 19:52 53.15154 7.99224 31443 ft 412 kts 243°
2026-04-24 19:52 53.13754 7.95080 31926 ft 410 kts 243°
2026-04-24 19:53 53.12360 7.90963 32424 ft 407 kts 243°
2026-04-24 19:53 53.10970 7.86864 32905 ft 406 kts 243°
2026-04-24 19:53 53.08205 7.78725 33825 ft 402 kts 243°
2026-04-24 19:54 53.06848 7.74741 34238 ft 401 kts 243°
2026-04-24 19:54 53.05474 7.70713 34566 ft 401 kts 243°
2026-04-24 19:54 53.04099 7.66686 34827 ft 402 kts 243°
2026-04-24 19:54 53.02716 7.62643 35099 ft 402 kts 243°
2026-04-24 19:55 53.01782 7.59916 35283 ft 403 kts 243°
2026-04-24 19:55 52.99945 7.54564 35631 ft 403 kts 243°
2026-04-24 19:55 52.98552 7.50512 35893 ft 404 kts 243°
2026-04-24 19:55 52.97159 7.46466 36132 ft 405 kts 243°
2026-04-24 19:56 52.95762 7.42417 36203 ft 404 kts 243°
2026-04-24 19:56 52.92972 7.34352 36214 ft 403 kts 243°
2026-04-24 19:57 52.90176 7.26292 36213 ft 404 kts 243°
2026-04-24 19:57 52.87375 7.18243 36210 ft 404 kts 243°
2026-04-24 19:58 52.84563 7.10189 36213 ft 404 kts 243°
2026-04-24 19:58 52.81747 7.02151 36213 ft 404 kts 243°
2026-04-24 19:59 52.78920 6.94108 36216 ft 405 kts 243°
2026-04-24 19:59 52.76087 6.86071 36221 ft 405 kts 242°
2026-04-24 20:00 52.73214 6.78072 36220 ft 406 kts 237°
2026-04-24 20:00 52.69428 6.71073 36226 ft 411 kts 230°
2026-04-24 20:01 52.65466 6.64299 36228 ft 410 kts 230°
2026-04-24 20:01 52.61586 6.57486 36231 ft 410 kts 231°
2026-04-24 20:02 52.58355 6.51768 36225 ft 411 kts 231°
2026-04-24 20:02 52.53811 6.43738 36236 ft 411 kts 231°
2026-04-24 20:03 52.49905 6.36860 36242 ft 411 kts 231°
2026-04-24 20:03 52.45995 6.29995 36236 ft 412 kts 230°
2026-04-24 20:04 52.42077 6.23134 36237 ft 412 kts 230°
2026-04-24 20:04 52.38180 6.16330 36242 ft 413 kts 230°
2026-04-24 20:05 52.34247 6.09482 36245 ft 413 kts 230°
2026-04-24 20:05 52.30311 6.02648 36243 ft 413 kts 230°
2026-04-24 20:06 52.26363 5.95812 36245 ft 413 kts 230°
2026-04-24 20:06 52.22414 5.88994 36242 ft 414 kts 230°
2026-04-24 20:07 52.19125 5.83328 36243 ft 414 kts 230°
2026-04-24 20:07 52.14496 5.75377 36243 ft 414 kts 230°
2026-04-24 20:08 52.10552 5.68624 36241 ft 414 kts 230°
2026-04-24 20:08 52.06580 5.61840 36243 ft 414 kts 230°
2026-04-24 20:09 52.02603 5.55067 36248 ft 414 kts 230°
2026-04-24 20:09 51.98617 5.48299 36247 ft 415 kts 230°
2026-04-24 20:10 51.94630 5.41545 36249 ft 415 kts 229°
2026-04-24 20:10 51.90633 5.34794 36247 ft 415 kts 229°
2026-04-24 20:11 51.86635 5.28060 36250 ft 415 kts 229°
2026-04-24 20:11 51.82630 5.21333 36247 ft 415 kts 229°
2026-04-24 20:12 51.78641 5.14650 36244 ft 416 kts 229°
2026-04-24 20:12 51.74660 5.07998 36247 ft 416 kts 229°
2026-04-24 20:13 51.70634 5.01290 36239 ft 416 kts 229°
2026-04-24 20:13 51.66602 4.94591 36239 ft 417 kts 229°
2026-04-24 20:14 51.62566 4.87903 36025 ft 415 kts 229°
2026-04-24 20:14 51.60551 4.84570 35396 ft 417 kts 229°
2026-04-24 20:14 51.59210 4.82352 34826 ft 420 kts 229°
2026-04-24 20:14 51.58346 4.80909 34467 ft 422 kts 230°
2026-04-24 20:15 51.56490 4.77253 33549 ft 422 kts 237°
2026-04-24 20:15 51.54915 4.73334 32618 ft 424 kts 240°
2026-04-24 20:15 51.53340 4.69241 31672 ft 427 kts 240°
2026-04-24 20:15 51.51768 4.65178 30737 ft 430 kts 240°
2026-04-24 20:16 51.50204 4.61156 29739 ft 432 kts 240°
2026-04-24 20:16 51.48600 4.57051 28646 ft 435 kts 240°
2026-04-24 20:16 51.47016 4.53010 27552 ft 437 kts 240°
2026-04-24 20:16 51.45389 4.48868 26418 ft 441 kts 239°
2026-04-24 20:17 51.43749 4.44698 25292 ft 444 kts 239°
2026-04-24 20:17 51.39938 4.37325 24263 ft 413 kts 223°
2026-04-24 20:17 51.37684 4.34645 23862 ft 397 kts 215°
2026-04-24 20:18 51.36097 4.33200 23093 ft 397 kts 210°
2026-04-24 20:18 51.32604 4.30943 20701 ft 418 kts 196°
2026-04-24 20:18 51.29656 4.30345 18848 ft 437 kts 182°
2026-04-24 20:18 51.26627 4.30908 17479 ft 439 kts 168°
2026-04-24 20:19 51.23817 4.32529 16311 ft 433 kts 154°
2026-04-24 20:19 51.21318 4.35143 15170 ft 427 kts 140°
2026-04-24 20:19 51.19317 4.38589 14053 ft 421 kts 125°
2026-04-24 20:19 51.17946 4.42653 12852 ft 413 kts 110°
2026-04-24 20:20 51.17300 4.47052 11721 ft 405 kts 94°
2026-04-24 20:20 51.17189 4.51485 10616 ft 398 kts 91°
2026-04-24 20:20 51.16933 4.55807 9949 ft 383 kts 98°
2026-04-24 20:20 51.16449 4.59843 9658 ft 359 kts 102°
2026-04-24 20:21 51.15854 4.63571 9413 ft 336 kts 104°
2026-04-24 20:21 51.15222 4.67036 9201 ft 316 kts 106°
2026-04-24 20:21 51.14598 4.70273 9018 ft 297 kts 106°
2026-04-24 20:21 51.14000 4.73308 8825 ft 279 kts 106°
2026-04-24 20:22 51.13427 4.76217 8420 ft 273 kts 106°
2026-04-24 20:22 51.12864 4.79083 7909 ft 270 kts 106°
2026-04-24 20:22 51.12252 4.81852 7420 ft 269 kts 118°
2026-04-24 20:22 51.11038 4.84056 6941 ft 266 kts 146°
2026-04-24 20:23 51.09343 4.85119 6454 ft 263 kts 169°
2026-04-24 20:23 51.07537 4.85513 5942 ft 261 kts 174°
2026-04-24 20:23 51.05731 4.85783 5441 ft 260 kts 174°
2026-04-24 20:23 51.04051 4.86057 4982 ft 260 kts 173°
2026-04-24 20:24 51.02861 4.86255 4626 ft 259 kts 178°
2026-04-24 20:24 51.00599 4.85244 3956 ft 256 kts 216°
2026-04-24 20:24 50.99230 4.83446 3471 ft 256 kts 221°
2026-04-24 20:24 50.97899 4.81581 3118 ft 254 kts 221°
2026-04-24 20:25 50.96653 4.79654 2975 ft 246 kts 231°
2026-04-24 20:25 50.95754 4.77388 2869 ft 241 kts 244°
2026-04-24 20:25 50.95102 4.75003 2761 ft 231 kts 250°
2026-04-24 20:25 50.94587 4.72693 2708 ft 212 kts 251°
2026-04-24 20:26 50.94107 4.70629 2555 ft 188 kts 251°
2026-04-24 20:26 50.93679 4.68765 2360 ft 174 kts 251°
2026-04-24 20:26 50.93275 4.67008 2134 ft 165 kts 251°
2026-04-24 20:26 50.92893 4.65361 1939 ft 156 kts 251°
2026-04-24 20:27 50.92533 4.63777 1729 ft 151 kts 252°
2026-04-24 20:27 50.92172 4.62217 1529 ft 154 kts 251°
2026-04-24 20:27 50.91824 4.60701 1491 ft 138 kts 252°
2026-04-24 20:27 50.91492 4.59261 1373 ft 143 kts 252°
2026-04-24 20:28 50.91126 4.57653 1150 ft 171 kts 252°
2026-04-24 20:28 50.90713 4.55822 850 ft 168 kts 252°
2026-04-24 20:28 50.90311 4.54174 492 ft 154 kts 252°
2026-04-24 20:28 50.89964 4.52640 210 ft 140 kts 252°
2026-04-24 20:29 50.89754 4.51734 167 ft 126 kts 252°
2026-04-24 20:29 50.89432 4.50309 156 ft 68 kts 250°
2026-04-24 20:29 50.89348 4.49956 159 ft 25 kts 250°
2026-04-24 20:29 50.89361 4.49689 151 ft 24 kts 300°
2026-04-24 20:30 50.89411 4.49588 149 ft 0 kts 306°
2026-04-24 20:31 50.89417 4.49574 149 ft 4 kts 306°
2026-04-24 20:31 50.89437 4.49530 153 ft 4 kts 305°
2026-04-24 20:31 50.89452 4.49496 155 ft 6 kts 305°
2026-04-24 20:31 50.89503 4.49384 151 ft 20 kts 306°
2026-04-24 20:32 50.89590 4.49202 144 ft 16 kts 307°
2026-04-24 20:32 50.89688 4.49157 144 ft 17 kts 13°
2026-04-24 20:32 50.89809 4.49210 144 ft 20 kts 15°
2026-04-24 20:32 50.89956 4.49271 143 ft 24 kts 14°
2026-04-24 20:33 50.90119 4.49336 143 ft 24 kts 14°
2026-04-24 20:33 50.90278 4.49400 143 ft 24 kts 12°
2026-04-24 20:33 50.90350 4.49356 143 ft 10 kts 326°
2026-04-24 20:33 50.90387 4.49264 143 ft 12 kts 261°
2026-04-24 20:34 50.90349 4.49137 143 ft 12 kts 243°
2026-04-24 20:34 50.90309 4.48996 143 ft 15 kts 248°
2026-04-24 20:34 50.90288 4.48873 143 ft 8 kts 295°
2026-04-24 20:34 50.90326 4.48841 143 ft 7 kts 334°
2026-04-24 20:35 50.90348 4.48824 143 ft 0 kts 334°